Temp
40 40 39 39 38 40 33 38 31 37 34 36 40 39 38 40 41 41 40 40 41 41 42 43 44 45 46 47 48 53 54 55 59 61 61 62 64 66 67 67 68 69 69 69
34 41 40 36 40 41 40 40 38 39 39 47 49 46 41 40 39 38 39 39 40 41 42 42 42 43 45 45 46 49 49 50 55 53 52 54 56 57 61 62 63 60 65 66
33 38 37 34 41 42 42 43 42 37 44 47 45 43 41 40 40 39 39 40 40 41 42 42 43 45 43 44 47 46 47 46 47 48 49 49 49 50 50 50 49 47 48 49
35 38 28 41 45 45 43 45 45 45 46 46 46 46 45 45 43 42 42 43 43 44 46 47 48 48 50 49 45 44 44 43 44 45 46 46 46 46 47 47 47 46 46 46
32 33 40 43 42 42 41 44 49 47 48 47 47 47 44 46 46 45 44 45 46 47 48 49 49 49 49 47 48 46 44 44 45 45 44 44 43 43 45 45 44 44 45 45
33 28 30 43 44 48 48 39 49 50 48 47 47 43 46 46 45 46 46 46 45 47 48 48 48 50 49 46 44 42 43 44 47 48 48 45 46 44 44 45 44 45 46 48
36 33 40 48 47 48 37 43 49 49 49 47 46 50 48 46 45 45 45 45 47 47 46 45 47 48 45 45 42 44 43 43 44 45 45 47 48 48 47 46 46 45 45 46
35 32 31 47 44 42 50 48 50 49 49 48 49 46 46 46 45 45 45 45 45 45 44 45 45 48 45 42 44 45 46 44 44 45 46 47 47 47 48 48 46 45 45 44
42 44 48 49 52 54 52 52 49 50 49 50 47 46 46 46 46 46 45 45 45 45 44 44 44 45 44 43 45 46 45 43 43 43 45 46 46 46 46 47 45 43 42 42
41 50 47 50 52 50 52 52 53 52 51 49 48 48 47 47 47 46 46 45 45 44 44 44 44 43 43 44 45 45 44 43 44 43 43 44 43 44 44 44 43 42 41 40
41 47 49 48 49 53 52 51 50 51 51 50 50 49 49 48 47 47 47 46 45 45 45 44 44 44 43 43 44 43 42 41 41 42 42 42 42 43 44 43 43 42 43 42
46 47 47 50 50 50 50 50 51 50 48 50 51 51 50 49 50 48 47 46 44 44 45 44 44 43 43 43 43 44 43 42 41 42 41 41 40 39 39 40 40 40 40 41
48 47 47 48 49 51 48 50 53 51 52 50 50 52 51 50 50 48 48 46 45 45 46 45 44 42 42 42 42 41 42 41 42 42 42 42 42 41 38 38 38 38 38 39
47 44 43 47 47 50 48 49 51 51 52 52 52 50 50 49 48 47 46 47 47 46 45 44 43 42 43 41 41 40 40 37 41 41 41 41 40 39 40 39 39 39 38 37
45 43 44 47 46 46 47 47 46 47 49 48 49 49 48 47 46 47 48 47 45 44 44 43 41 41 42 41 40 40 40 40 40 39 39 38 38 38 38 38 38 38 39 37
42 40 41 40 41 44 46 45 45 48 49 49 49 47 49 49 49 48 47 45 42 41 43 41 41 43 41 40 40 39 40 37 38 38 37 37 37 37 37 37 37 37 37 36
37 40 40 39 40 43 44 46 47 49 49 48 48 49 48 46 45 44 44 44 43 45 45 43 42 43 41 40 40 40 40 39 38 37 36 36 36 36 36 36 36 36 35 35
39 39 39 38 40 41 43 45 45 46 46 47 48 46 44 43 43 44 44 43 42 41 42 43 44 42 40 40 40 40 38 38 37 37 37 35 36 36 35 35 35 34 35 35
41 40 40 40 42 42 43 44 43 44 45 45 44 43 44 45 44 44 43 40 39 38 41 42 39 38 39 39 38 38 37 36 36 35 35 35 33 34 33 34 34 34 34 32
41 41 42 41 42 42 42 44 44 43 44 43 42 42 43 44 44 44 42 39 41 43 44 41 39 39 39 39 37 38 37 36 36 36 34 34 33 33 33 32 32 32 32 32
40 40 41 42 42 43 42 44 43 43 44 41 40 41 42 43 44 42 37 37 41 39 38 37 38 39 38 38 38 36 36 35 35 34 31 32 31 32 32 32 31 30 30 30
37 37 38 39 39 39 42 42 42 40 40 39 38 39 39 39 41 39 41 42 45 39 39 38 37 38 38 37 36 35 34 33 33 32 31 32 31 31 31 31 30 30 29 29
34 35 36 36 35 36 36 38 37 37 37 38 38 38 38 41 42 38 37 41 39 39 39 38 38 37 37 37 35 35 34 33 32 32 32 32 32 32 32 31 30 29 29 28
36 37 37 38 37 36 36 39 37 36 37 36 35 36 37 38 39 40 43 41 39 38 38 38 37 37 38 37 35 34 34 33 33 33 33 34 33 33 32 30 29 29 27 27
35 35 34 33 34 36 37 37 37 36 36 34 35 37 37 39 38 42 38 38 38 37 37 37 37 38 38 36 35 35 34 34 33 34 34 33 32 32 31 29 28 27 26 26
36 38 39 38 38 38 38 38 36 38 38 37 39 40 38 38 38 39 37 37 37 36 36 36 37 37 37 35 35 35 34 34 34 34 33 33 32 31 29 28 27 26 26 25
33 35 36 35 37 37 36 36 35 36 38 37 36 39 38 37 36 37 36 36 36 35 34 34 36 36 34 34 33 32 32 32 32 31 31 30 29 29 27 26 25 24 23 23
MSLP
1018.43 1018.19 1018.14 1018.00 1017.44 1017.38 1017.61 1017.31 1017.17 1016.38 1016.38 1016.31 1016.19 1016.25 1016.20 1015.68 1014.79 1014.17 1013.67 1012.96 1012.33 1011.68 1010.94 1010.04 1009.15 1008.58 1007.79 1006.67 1004.81 1004.20 1004.58 1004.72 1004.74 1004.76 1004.74 1004.85 1005.02 1005.04 1005.21 1005.42 1005.52 1005.79 1006.13 1006.54
1017.78 1017.22 1017.41 1017.30 1016.56 1016.42 1016.51 1016.59 1016.19 1015.77 1015.21 1015.65 1015.57 1016.01 1016.05 1016.08 1015.79 1015.29 1014.82 1014.28 1013.57 1012.69 1012.05 1011.38 1010.50 1009.59 1008.76 1007.83 1006.67 1005.77 1005.80 1005.94 1005.56 1005.44 1005.37 1005.53 1005.55 1005.79 1005.53 1005.60 1005.67 1006.19 1005.92 1006.13
1017.47 1017.18 1016.80 1016.06 1014.71 1014.87 1015.19 1015.39 1015.19 1014.82 1014.47 1015.00 1015.20 1015.63 1016.13 1016.17 1016.16 1016.03 1015.72 1015.32 1014.62 1013.84 1013.11 1012.35 1011.75 1011.00 1009.80 1009.15 1008.44 1007.89 1007.49 1007.01 1006.52 1006.00 1006.02 1005.93 1006.00 1006.01 1006.36 1006.83 1006.77 1007.39 1007.60 1007.69
1017.70 1016.82 1015.75 1014.52 1014.62 1014.44 1014.47 1014.27 1014.35 1014.20 1014.16 1014.80 1015.19 1015.70 1016.26 1016.48 1016.44 1016.34 1016.15 1015.69 1015.28 1014.64 1013.83 1013.12 1012.49 1011.95 1011.39 1010.23 1009.38 1008.91 1008.22 1008.37 1008.00 1007.24 1006.39 1006.46 1007.60 1008.09 1007.82 1007.77 1007.72 1008.11 1007.80 1008.38
1018.09 1016.81 1014.74 1013.43 1014.07 1014.24 1014.08 1013.15 1013.09 1013.53 1013.87 1014.44 1015.00 1015.53 1015.96 1016.47 1016.72 1016.63 1016.59 1016.31 1015.85 1015.26 1014.58 1013.88 1013.16 1012.71 1012.14 1011.66 1011.22 1010.73 1010.62 1010.44 1010.03 1009.45 1008.95 1009.08 1009.50 1008.35 1008.40 1008.51 1009.14 1009.44 1009.67 1009.86
1018.44 1017.05 1014.79 1013.32 1013.72 1014.01 1014.06 1013.04 1012.53 1013.23 1013.68 1014.11 1014.69 1014.77 1015.37 1016.13 1016.66 1016.70 1016.73 1016.59 1016.19 1015.63 1015.14 1014.52 1014.22 1013.63 1012.87 1012.43 1012.13 1011.76 1011.66 1011.36 1010.79 1010.17 1009.76 1009.44 1009.58 1009.84 1010.11 1010.04 1010.31 1010.67 1010.74 1010.79
1017.56 1016.47 1014.01 1013.03 1013.60 1014.05 1013.75 1012.96 1012.67 1013.17 1013.58 1014.15 1014.45 1014.69 1015.40 1016.27 1016.69 1016.95 1016.99 1016.76 1016.53 1016.14 1015.84 1015.65 1015.35 1014.79 1014.11 1013.82 1013.43 1013.29 1012.92 1012.48 1011.98 1011.74 1011.47 1011.13 1010.94 1010.98 1011.10 1011.15 1011.32 1011.61 1011.81 1012.19
1016.88 1015.87 1013.78 1013.07 1013.81 1013.39 1012.37 1012.61 1012.77 1013.25 1013.58 1013.97 1014.44 1015.08 1015.59 1016.13 1016.55 1016.81 1016.85 1016.81 1016.62 1016.38 1016.23 1016.14 1015.85 1015.22 1014.77 1014.64 1014.65 1014.18 1013.79 1013.60 1013.14 1012.75 1012.53 1012.34 1012.08 1012.06 1011.99 1012.05 1012.27 1012.50 1012.70 1012.90
1015.38 1013.18 1012.39 1012.55 1012.09 1012.09 1012.34 1012.27 1012.78 1013.08 1013.52 1013.78 1014.28 1014.72 1015.21 1015.68 1016.10 1016.42 1016.70 1016.86 1016.91 1016.73 1016.70 1016.65 1016.44 1016.01 1015.56 1015.51 1015.02 1014.56 1014.31 1014.14 1013.96 1013.86 1013.60 1013.48 1013.20 1013.13 1013.04 1013.12 1013.21 1013.48 1013.65 1013.80
1015.04 1011.88 1012.19 1012.16 1012.05 1012.38 1012.40 1012.39 1012.53 1012.84 1013.20 1013.67 1013.94 1014.43 1014.90 1015.36 1015.80 1016.15 1016.44 1016.66 1016.83 1016.90 1016.83 1016.83 1016.89 1016.71 1016.52 1016.32 1015.99 1015.54 1015.23 1015.03 1014.91 1014.67 1014.51 1014.40 1014.50 1014.24 1014.11 1014.06 1014.13 1014.34 1014.52 1014.66
1014.07 1012.57 1012.16 1011.81 1011.88 1011.73 1011.95 1012.29 1012.45 1012.60 1012.72 1013.00 1013.44 1013.77 1014.19 1014.67 1015.11 1015.57 1016.02 1016.42 1016.73 1016.74 1016.78 1016.82 1016.90 1016.80 1016.70 1016.62 1016.40 1016.17 1016.05 1015.98 1015.85 1015.66 1015.42 1015.30 1015.25 1015.30 1015.20 1015.35 1015.21 1015.12 1015.22 1015.33
1012.64 1012.50 1012.54 1011.73 1011.87 1011.89 1011.88 1011.70 1011.86 1012.23 1012.50 1012.65 1012.84 1013.00 1013.51 1013.83 1014.24 1014.75 1015.20 1015.64 1016.03 1016.21 1016.37 1016.52 1016.70 1016.75 1016.81 1016.85 1016.69 1016.44 1016.27 1016.27 1016.32 1016.19 1016.14 1016.09 1016.09 1016.30 1016.47 1016.37 1016.22 1016.24 1016.16 1015.99
1013.10 1013.08 1012.96 1012.39 1011.98 1011.77 1011.67 1011.26 1011.23 1011.59 1011.75 1012.05 1012.42 1012.71 1013.06 1013.24 1013.58 1013.97 1014.55 1014.96 1015.16 1015.37 1015.70 1016.01 1016.31 1016.52 1016.74 1016.90 1016.81 1016.58 1016.40 1016.49 1016.47 1016.40 1016.35 1016.29 1016.32 1016.20 1016.20 1016.72 1016.65 1016.69 1016.59 1016.49
1013.63 1013.64 1012.76 1012.12 1011.61 1011.31 1011.38 1011.17 1011.19 1011.26 1011.50 1011.78 1011.97 1012.46 1012.75 1013.03 1013.37 1013.70 1014.00 1014.27 1014.72 1015.06 1015.39 1015.69 1015.99 1016.15 1016.39 1016.67 1016.79 1016.75 1016.67 1016.67 1016.55 1016.55 1016.62 1016.46 1016.43 1016.51 1016.62 1016.47 1016.38 1016.56 1016.74 1016.76
1013.41 1013.56 1013.03 1012.44 1012.13 1011.65 1011.47 1011.27 1011.10 1011.05 1011.22 1011.53 1011.84 1012.06 1012.39 1012.59 1012.83 1013.02 1013.42 1013.96 1014.46 1014.73 1014.93 1015.29 1015.50 1015.60 1016.02 1016.38 1016.54 1016.51 1016.50 1016.48 1016.52 1016.65 1016.78 1016.83 1016.79 1016.66 1016.52 1016.63 1016.70 1016.67 1016.60 1016.89
1013.36 1013.20 1012.76 1012.38 1011.74 1011.47 1011.31 1011.11 1010.98 1010.64 1010.76 1010.89 1011.22 1011.50 1011.65 1012.00 1012.28 1012.55 1012.91 1013.37 1013.80 1013.73 1013.98 1014.45 1014.67 1014.90 1015.44 1015.83 1016.05 1016.13 1016.15 1016.27 1016.31 1016.35 1016.54 1016.74 1016.95 1016.91 1016.71 1016.73 1016.70 1016.58 1016.66 1016.78
1013.79 1012.74 1012.49 1012.21 1011.81 1011.48 1011.23 1011.11 1010.90 1010.65 1010.61 1010.79 1010.66 1010.89 1011.30 1011.60 1011.96 1012.21 1012.41 1012.76 1013.04 1013.12 1013.35 1013.65 1013.87 1014.33 1014.77 1015.13 1015.27 1015.27 1015.43 1015.62 1015.84 1016.19 1016.37 1016.40 1016.31 1016.48 1016.43 1016.46 1016.56 1016.71 1016.84 1016.88
1013.96 1013.50 1013.05 1012.63 1012.11 1011.68 1011.22 1011.00 1010.93 1010.84 1010.65 1010.45 1010.68 1010.90 1011.15 1011.34 1011.27 1011.39 1011.67 1012.22 1012.66 1012.85 1012.90 1013.04 1013.42 1013.85 1014.22 1014.48 1014.60 1014.72 1014.93 1015.13 1015.38 1015.61 1015.80 1015.92 1015.87 1016.04 1015.98 1016.26 1016.52 1016.56 1016.62 1016.73
1013.26 1013.01 1012.64 1012.31 1011.91 1011.57 1011.28 1010.99 1010.84 1010.66 1010.48 1010.50 1010.62 1010.51 1010.44 1010.39 1010.46 1010.61 1011.07 1011.58 1011.84 1011.96 1011.67 1012.39 1012.85 1013.31 1013.45 1013.66 1013.97 1014.22 1014.36 1014.56 1014.83 1015.08 1015.33 1015.55 1015.76 1015.84 1015.81 1015.94 1016.18 1016.40 1016.59 1016.70
1012.79 1012.49 1012.25 1011.93 1011.67 1011.44 1011.07 1010.75 1010.47 1010.21 1010.04 1010.08 1010.07 1010.08 1009.92 1009.75 1009.84 1010.09 1010.40 1010.37 1010.21 1010.39 1011.00 1011.34 1011.94 1012.30 1012.51 1012.82 1013.27 1013.49 1013.71 1014.04 1014.33 1014.62 1014.88 1015.00 1015.21 1015.38 1015.44 1015.71 1016.02 1016.25 1016.47 1016.58
1012.56 1012.13 1011.70 1011.32 1010.93 1010.64 1010.46 1010.24 1010.08 1009.79 1009.51 1009.42 1009.42 1009.21 1008.93 1008.68 1008.78 1009.12 1009.58 1009.50 1009.06 1009.77 1010.21 1010.64 1011.00 1011.31 1011.72 1012.08 1012.49 1012.81 1013.14 1013.48 1013.79 1014.04 1014.41 1014.70 1014.86 1014.89 1015.15 1015.45 1015.69 1015.83 1015.96 1016.20
1012.27 1012.05 1011.66 1011.32 1011.04 1010.59 1010.09 1009.94 1009.88 1009.70 1009.45 1009.23 1009.04 1008.76 1008.58 1008.26 1008.37 1008.52 1008.34 1008.30 1008.29 1009.07 1009.71 1010.19 1010.44 1010.60 1010.93 1011.44 1011.80 1012.15 1012.45 1012.77 1013.13 1013.43 1013.58 1013.98 1014.02 1014.34 1014.69 1014.99 1015.21 1015.39 1015.39 1015.53
1012.01 1011.96 1011.64 1011.32 1011.11 1010.73 1010.22 1009.71 1009.40 1009.30 1008.92 1008.60 1008.48 1008.29 1008.09 1007.60 1007.44 1007.60 1007.30 1007.14 1007.77 1008.15 1008.68 1009.17 1009.56 1010.03 1010.45 1010.74 1011.04 1011.33 1011.68 1011.95 1012.14 1012.42 1012.76 1013.12 1013.42 1013.79 1014.21 1014.44 1014.62 1014.90 1015.08 1015.14
1011.40 1011.25 1011.06 1010.66 1010.39 1010.22 1009.88 1009.04 1008.84 1008.50 1008.06 1007.69 1007.55 1007.30 1007.30 1007.12 1006.84 1006.75 1006.61 1006.53 1006.69 1007.19 1007.66 1008.03 1008.56 1009.11 1009.66 1010.04 1010.38 1010.68 1011.13 1011.50 1011.91 1012.24 1012.43 1012.73 1013.01 1013.31 1013.63 1014.00 1014.24 1014.48 1014.82 1015.04
1010.78 1010.58 1010.38 1010.16 1009.95 1009.47 1009.01 1008.75 1008.54 1008.08 1007.59 1007.05 1006.56 1006.18 1006.11 1006.05 1005.99 1005.35 1005.67 1005.79 1006.00 1006.32 1006.39 1007.01 1007.52 1007.97 1008.28 1008.77 1009.31 1009.84 1010.53 1011.10 1011.65 1012.19 1012.32 1012.45 1012.66 1012.88 1013.15 1013.56 1013.87 1014.17 1014.48 1014.73
1009.92 1009.94 1009.69 1009.37 1009.13 1008.78 1008.39 1008.22 1007.91 1007.41 1007.08 1006.50 1005.87 1005.53 1005.35 1005.20 1004.97 1004.80 1004.81 1005.12 1005.30 1005.58 1006.04 1006.13 1006.59 1007.36 1008.01 1008.64 1009.14 1009.56 1010.21 1010.75 1011.20 1011.70 1011.97 1012.12 1012.30 1012.64 1012.98 1013.26 1013.55 1013.83 1014.30 1014.43
1009.07 1009.03 1008.85 1008.49 1008.10 1007.86 1007.67 1007.39 1007.20 1006.65 1006.32 1005.91 1005.39 1005.05 1004.74 1004.73 1004.67 1004.64 1004.64 1004.71 1005.03 1005.51 1005.93 1006.60 1007.27 1007.64 1008.05 1008.48 1009.07 1009.65 1010.21 1010.64 1011.18 1011.64 1011.79 1011.93 1012.17 1012.43 1012.84 1013.11 1013.33 1013.66 1014.09 1014.36
Wind_Speed
9 11 8 6 10 7 4 6 5 6 11 9 11 12 13 15 19 20 20 21 19 18 17 17 17 15 14 14 17 4 6 4 5 5 4 4 6 10 12 13 13 14 15 15
6 6 10 13 14 13 12 9 11 10 11 4 7 9 13 14 15 16 17 17 18 18 18 17 18 17 15 16 16 13 11 11 4 5 7 6 5 5 7 11 4 3 13 10
5 4 8 10 10 13 5 6 5 6 2 6 5 8 11 11 13 14 15 16 16 16 15 14 15 14 16 15 15 15 15 14 11 7 8 10 12 7 7 8 12 10 10 12
6 8 4 3 2 1 7 8 12 10 9 3 2 3 6 7 9 11 12 14 14 13 14 15 14 16 15 16 16 17 21 17 14 12 14 15 15 6 11 11 14 10 14 14
4 5 12 3 5 6 6 4 9 13 8 4 4 4 2 4 5 6 8 8 9 10 11 12 15 14 14 15 15 15 14 12 12 11 13 13 12 14 13 14 13 12 11 13
2 3 5 3 2 2 4 7 8 9 7 5 6 5 3 2 2 4 5 6 8 9 10 12 14 13 14 15 16 16 15 15 15 16 16 17 16 14 11 12 13 10 13 14
8 6 9 3 6 4 4 3 10 10 8 7 6 3 8 5 1 2 4 5 6 7 8 10 10 10 12 13 14 12 11 13 15 15 15 15 14 12 10 11 11 11 13 12
4 6 8 7 6 6 2 2 7 8 8 10 5 7 7 6 5 3 1 3 5 6 7 8 9 8 11 12 9 9 10 11 12 13 11 10 13 11 12 12 12 12 11 10
8 6 2 13 4 7 3 4 7 9 8 9 10 9 10 10 9 7 6 3 2 3 4 5 7 8 8 9 10 10 10 11 11 11 11 11 11 11 9 11 10 10 9 8
4 4 14 14 15 9 8 8 7 9 10 11 11 10 10 8 8 7 7 6 4 4 1 2 4 5 5 5 6 7 8 9 8 9 9 9 8 8 8 8 8 7 7 6
9 15 13 14 14 14 15 9 8 9 12 14 11 11 11 10 10 9 8 7 7 6 4 3 1 2 4 4 4 4 5 5 6 6 7 8 8 7 7 9 7 5 5 5
5 1 5 5 4 6 15 16 14 12 11 12 13 12 12 10 10 10 10 9 8 8 7 5 4 1 1 3 3 1 3 3 4 3 4 4 5 6 12 11 11 12 11 7
5 1 8 15 15 11 13 16 16 14 14 12 13 12 12 10 10 10 9 10 10 10 8 6 5 4 4 3 3 1 3 3 3 2 3 3 3 3 4 4 9 10 9 10
12 9 12 12 10 5 7 9 12 13 12 12 12 11 11 10 6 9 11 11 9 9 8 8 8 8 7 5 5 4 4 3 3 3 2 3 3 3 2 2 3 3 5 7
5 6 15 15 15 16 9 6 10 12 12 12 10 12 11 12 12 12 11 10 9 9 10 10 10 9 8 8 7 7 5 4 4 3 2 2 2 3 3 2 1 1 1 3
15 13 13 14 16 14 11 8 11 12 12 12 12 13 13 13 11 10 9 10 10 12 12 11 11 9 10 10 9 6 6 6 6 4 4 3 3 2 2 2 1 0 1 2
9 9 7 9 7 10 11 9 10 11 10 11 14 12 11 11 10 10 11 11 12 11 9 11 11 9 10 10 10 6 6 6 9 5 5 4 4 3 3 1 0 1 2 1
8 12 11 10 10 9 8 9 10 11 12 12 10 9 10 11 13 12 11 10 9 10 10 9 9 9 10 11 10 7 7 7 7 6 5 4 4 3 3 2 2 3 3 2
4 6 4 4 6 8 9 8 7 8 10 10 9 12 13 13 13 12 9 10 12 12 13 12 13 13 12 12 11 7 7 7 7 5 5 6 4 3 3 3 3 3 3 3
3 3 3 2 3 4 7 8 8 9 8 8 9 10 12 13 13 12 12 14 14 8 8 12 14 13 13 13 16 8 8 8 8 7 6 5 5 4 3 4 4 4 4 4
5 5 5 5 6 5 6 6 8 10 9 8 10 12 13 13 11 11 9 9 12 12 10 13 11 9 8 9 12 8 8 8 7 6 5 5 5 4 4 4 4 4 4 4
4 5 7 6 6 8 7 7 8 9 9 9 9 10 9 12 10 11 13 12 7 16 10 8 8 12 9 17 7 7 7 7 7 6 5 5 4 4 5 5 5 5 4 4
6 5 7 6 5 8 10 10 8 7 9 9 10 10 10 9 7 8 10 12 9 12 9 9 13 18 18 10 8 8 8 7 6 6 5 5 6 6 6 5 5 5 5 5
5 6 8 8 6 8 10 13 6 8 9 9 9 10 8 8 7 8 9 5 15 16 11 10 15 20 18 7 7 6 6 6 6 6 7 9 6 6 5 5 4 4 4 5
6 6 6 7 8 7 8 9 9 10 9 9 10 9 10 8 9 6 7 8 14 15 11 17 19 20 11 8 8 8 7 6 6 7 6 6 6 6 5 4 4 4 4 4
6 6 7 9 9 8 8 7 8 8 8 9 8 7 7 7 8 9 8 10 8 13 8 8 9 10 7 7 6 7 6 6 6 7 7 6 5 5 4 4 4 4 3 3
6 9 6 7 6 6 7 8 8 9 9 8 10 9 7 7 7 9 9 8 7 6 5 4 4 6 5 5 5 5 5 4 5 5 5 4 4 4 4 4 3 3 3 3
Wind_Direction
265 257 252 262 274 272 227 264 263 314 303 312 343 357 352 352 2 13 14 13 7 8 9 11 15 14 8 360 0 197 152 180 221 215 185 201 231 239 230 226 228 229 236 235
283 285 248 264 263 259 262 259 257 275 283 3 359 8 8 10 5 8 7 5 3 7 13 12 5 2 11 16 21 33 52 34 80 76 68 66 24 320 280 240 225 289 240 232
278 322 301 270 261 226 176 202 234 253 314 326 350 10 16 2 14 12 7 6 8 7 5 8 10 9 7 13 34 40 49 44 27 33 83 65 50 53 61 80 75 45 77 77
295 313 259 85 166 241 229 237 213 250 266 282 317 91 43 16 19 20 13 11 12 8 11 18 16 25 29 26 32 38 39 26 17 28 59 61 58 49 93 86 72 63 61 63
280 293 297 216 179 186 205 275 222 219 230 204 169 161 74 29 21 32 15 10 10 11 14 18 20 20 26 39 43 47 48 44 42 51 73 88 91 53 56 73 70 64 62 65
174 271 272 47 134 150 163 259 188 191 205 208 188 224 144 158 24 30 36 23 14 14 18 22 16 16 28 34 32 34 31 35 42 44 51 59 62 63 60 64 71 68 67 64
231 260 276 220 142 162 241 48 175 189 192 183 207 345 116 147 157 342 13 10 13 29 29 20 7 17 36 32 29 28 34 33 41 46 50 53 59 60 67 71 75 71 71 67
190 218 264 141 121 209 63 128 179 190 188 195 190 159 163 175 188 203 238 338 13 19 24 14 7 16 35 33 20 32 40 47 43 43 41 43 54 57 58 63 66 64 65 62
222 231 74 195 244 212 203 171 186 196 193 185 175 188 188 192 194 198 210 211 267 6 24 18 8 13 31 14 15 23 35 38 41 46 45 50 52 52 53 54 56 56 52 53
313 233 241 233 232 236 219 222 195 203 187 182 191 194 201 203 201 204 207 218 226 237 242 36 12 22 30 16 19 30 41 40 37 49 52 56 54 53 57 53 56 55 51 44
258 282 276 248 243 246 224 226 215 198 194 197 201 199 200 201 205 207 209 209 214 224 231 209 200 33 26 12 12 55 61 56 53 49 57 63 61 50 59 51 45 64 61 50
233 75 253 286 348 319 238 233 221 211 205 212 205 206 200 210 205 201 204 201 207 214 216 205 200 166 9 357 352 40 73 58 51 66 70 78 100 96 69 73 72 74 63 52
284 311 284 286 293 278 249 243 224 214 219 212 212 218 211 218 209 203 211 211 215 216 215 206 203 209 208 227 242 137 117 119 114 103 97 100 92 95 114 105 79 68 65 54
261 285 278 260 265 315 287 257 232 224 225 222 220 212 222 223 220 217 222 224 220 214 214 209 207 214 204 204 210 196 177 170 159 138 125 113 102 102 93 91 96 84 65 38
279 238 262 285 287 280 297 252 221 222 220 221 220 220 215 219 222 222 222 212 206 211 213 208 209 214 195 197 205 201 193 179 167 157 151 140 150 143 121 104 91 63 83 168
302 294 281 269 273 275 260 250 240 236 224 226 221 220 223 227 229 225 216 201 198 212 212 208 213 210 190 194 200 196 196 186 183 175 169 176 186 190 160 163 177 38 347 352
299 317 309 309 302 290 258 265 257 255 251 237 234 231 221 223 228 228 223 213 218 228 217 210 215 195 191 195 194 193 188 182 191 192 194 189 178 187 169 164 262 278 286 309
266 282 287 272 278 307 302 273 266 266 255 252 250 234 224 220 227 229 225 213 220 232 228 219 208 192 193 195 195 191 189 187 188 198 188 188 184 188 176 202 243 258 267 275
328 320 308 256 269 277 283 287 275 262 261 255 245 235 233 232 227 226 205 201 214 222 228 210 201 196 199 196 190 193 192 185 185 185 192 191 194 192 193 213 245 261 270 266
338 352 339 315 272 247 269 267 269 271 267 248 244 247 244 239 230 226 212 217 217 218 204 198 190 200 201 194 191 190 190 191 191 193 191 193 194 200 200 220 234 239 248 255
309 309 305 315 311 292 263 272 272 272 266 226 231 241 241 245 231 225 217 224 225 198 187 183 187 193 186 178 186 189 189 189 191 189 189 196 197 201 209 227 231 232 239 247
257 273 288 303 310 307 311 306 294 292 284 265 250 248 244 245 241 229 228 230 228 188 188 194 199 191 184 183 184 184 182 183 186 181 180 200 195 207 219 220 223 226 228 230
261 258 274 282 288 291 305 301 291 273 280 277 266 260 245 251 243 225 233 222 207 189 192 199 197 193 193 188 187 188 188 187 185 187 197 198 204 208 219 221 216 215 222 218
262 268 268 273 270 279 280 284 278 258 250 259 258 254 252 265 261 241 254 220 197 189 195 188 190 192 187 182 186 183 189 194 201 204 206 207 208 214 214 215 218 213 213 227
256 269 267 263 269 272 276 275 274 279 271 258 260 258 240 233 232 253 211 216 199 194 188 190 188 189 189 182 180 183 191 196 201 213 214 211 212 212 213 211 216 207 209 212
282 284 284 280 274 283 285 288 279 284 286 282 281 273 257 245 239 234 211 210 197 193 196 178 180 184 179 175 178 185 190 196 199 211 208 205 200 202 209 204 196 203 211 209
257 260 268 277 264 259 263 268 277 281 284 281 281 287 273 257 245 239 221 200 193 177 146 141 165 171 165 165 163 164 170 174 199 210 208 202 192 189 188 189 178 170 181 200